FW6665 Weather Reports


time (UTC)temp
C
wind
direction
speed
KPH
gust
KPH
rain 1hr
cm
rain 24hr
cm
rain mn
cm
humidity
%
barometer
mb
20260507224705 10 94 0.0 1.6 0.00 0.00 0.00 82 1014.3
20260507224204 10 94 0.0 1.6 0.00 0.00 0.00 82 1014.3
20260507223204 10 94 0.0 1.6 0.00 0.00 0.00 82 1014.3
20260507222704 10 94 0.0 0.0 0.00 0.00 0.00 82 1014.3
20260507222205 10 94 0.0 0.0 0.00 0.00 0.00 82 1014.3
20260507221704 10 94 0.0 0.0 0.00 0.00 0.00 82 1014.2
20260507221205 10 94 0.0 0.0 0.00 0.00 0.00 82 1014.3
20260507220705 10 94 0.0 1.6 0.00 0.00 0.00 82 1014.3
20260507220204 11 94 0.0 1.6 0.00 0.00 0.00 82 1014.3
20260507215204 11 94 0.0 1.6 0.00 0.00 0.00 82 1014.3
20260507214708 11 94 0.0 3.2 0.00 0.00 0.00 82 1014.2
20260507214203 11 94 0.0 3.2 0.00 0.00 0.00 82 1014.2
20260507213705 11 94 0.0 3.2 0.00 0.00 0.00 81 1014.3
20260507213204 11 94 0.0 3.2 0.00 0.00 0.00 81 1014.4
20260507212706 11 94 0.0 3.2 0.00 0.00 0.00 82 1014.3
20260507212204 11 94 0.0 1.6 0.00 0.00 0.00 81 1014.3
20260507211706 11 94 0.0 1.6 0.00 0.00 0.00 81 1014.2
20260507211204 11 94 0.0 1.6 0.00 0.00 0.00 81 1014.2
20260507210704 11 94 0.0 1.6 0.00 0.00 0.00 81 1014.2
20260507210204 11 94 0.0 1.6 0.00 0.00 0.00 80 1014.3
20260507205704 11 94 0.0 1.6 0.00 0.00 0.00 80 1014.1
20260507205204 11 94 0.0 1.6 0.00 0.00 0.00 79 1014.1
20260507204704 11 94 0.0 1.6 0.00 0.00 0.00 79 1014.0
20260507204204 11 94 0.0 1.6 0.00 0.00 0.00 79 1014.0
20260507203706 11 94 0.0 1.6 0.00 0.00 0.00 79 1014.0
20260507203204 11 94 0.0 1.6 0.00 0.00 0.00 78 1013.9
20260507202709 11 94 0.0 1.6 0.00 0.00 0.00 78 1013.9
20260507202204 11 94 0.0 1.6 0.00 0.00 0.00 78 1013.8
20260507201703 11 94 0.0 3.2 0.00 0.00 0.00 78 1013.8
20260507201205 11 94 0.0 3.2 0.00 0.00 0.00 78 1013.8
20260507200204 11 94 0.0 3.2 0.00 0.00 0.00 77 1013.7
20260507195704 11 94 0.0 3.2 0.00 0.00 0.00 77 1013.6
20260507194704 12 94 0.0 1.6 0.00 0.00 0.00 76 1013.5
20260507194203 12 94 0.0 3.2 0.00 0.00 0.00 76 1013.5
20260507193705 12 94 0.0 4.8 0.00 0.00 0.00 75 1013.5
20260507193204 12 94 0.0 4.8 0.00 0.00 0.00 75 1013.3
20260507192703 12 94 0.0 4.8 0.00 0.00 0.00 75 1013.5
20260507192205 12 94 1.6 4.8 0.00 0.00 0.00 75 1013.4
20260507191204 12 94 0.0 4.8 0.00 0.00 0.00 74 1013.3
20260507190705 12 94 1.6 3.2 0.00 0.00 0.00 74 1013.3
20260507185705 12 100 0.0 6.4 0.00 0.00 0.00 74 1013.4
20260507184704 12 99 1.6 8.0 0.00 0.00 0.00 74 1013.4
20260507184204 12 99 1.6 8.0 0.00 0.00 0.00 74 1013.3
20260507183704 12 96 1.6 6.4 0.00 0.00 0.00 73 1013.3
20260507183206 12 97 0.0 4.8 0.00 0.00 0.00 73 1013.3
20260507182704 13 99 0.0 4.8 0.00 0.00 0.00 73 1013.4
20260507182204 13 99 0.0 4.8 0.00 0.00 0.00 73 1013.3
20260507181705 13 99 0.0 6.4 0.00 0.00 0.00 72 1013.3
20260507181205 13 90 0.0 6.4 0.00 0.00 0.00 72 1013.3
20260507180704 13 92 1.6 8.0 0.00 0.00 0.00 72 1013.3
20260507180204 13 97 1.6 8.0 0.00 0.00 0.00 71 1013.3
20260507175704 13 97 3.2 8.0 0.00 0.00 0.00 71 1013.2
20260507175204 13 103 3.2 11.3 0.00 0.00 0.00 71 1013.2
20260507174714 13 100 1.6 11.3 0.00 0.00 0.00 71 1013.2
20260507173704 13 110 4.8 9.7 0.00 0.00 0.00 69 1013.0
20260507172705 13 93 1.6 8.0 0.00 0.00 0.00 69 1013.0
20260507172203 13 75 3.2 9.7 0.00 0.00 0.00 68 1013.1
20260507171205 14 103 3.2 9.7 0.00 0.00 0.00 67 1013.0
20260507170705 14 97 3.2 9.7 0.00 0.00 0.00 67 1013.0
20260507170204 14 97 3.2 8.0 0.00 0.00 0.00 68 1013.1
20260507165705 14 110 1.6 11.3 0.00 0.00 0.00 69 1013.0
20260507165203 13 106 3.2 11.3 0.00 0.00 0.00 68 1013.0
20260507164705 13 107 4.8 11.3 0.00 0.00 0.00 67 1013.0
20260507164205 13 73 3.2 8.0 0.00 0.00 0.00 69 1013.0
20260507163205 13 123 1.6 8.0 0.00 0.00 0.00 67 1012.9
20260507162704 13 120 1.6 8.0 0.00 0.00 0.00 67 1013.1
20260507162204 13 104 1.6 8.0 0.00 0.00 0.00 66 1013.1
20260507161706 14 90 1.6 8.0 0.00 0.00 0.00 67 1013.1
20260507161205 14 90 1.6 8.0 0.00 0.00 0.00 66 1013.1
20260507160205 14 94 3.2 8.0 0.00 0.00 0.00 64 1013.1
20260507155704 15 107 1.6 8.0 0.00 0.00 0.00 64 1013.1
20260507155204 15 92 1.6 6.4 0.00 0.00 0.00 65 1013.1
20260507154705 15 92 1.6 4.8 0.00 0.00 0.00 65 1013.1
20260507154204 15 104 1.6 4.8 0.00 0.00 0.00 64 1013.1
20260507153204 15 103 1.6 9.7 0.00 0.00 0.00 63 1013.1
20260507152704 15 104 3.2 9.7 0.00 0.00 0.00 62 1013.2
20260507152204 15 107 3.2 9.7 0.00 0.00 0.00 63 1013.2
20260507151704 15 121 0.0 6.4 0.00 0.00 0.00 63 1013.1
20260507151208 15 121 1.6 8.0 0.00 0.00 0.00 62 1013.2
20260507150706 15 121 3.2 8.0 0.00 0.00 0.00 61 1013.1
20260507145704 15 166 1.6 4.8 0.00 0.00 0.00 64 1013.1
20260507145205 15 165 1.6 4.8 0.00 0.00 0.00 67 1013.1
20260507144209 14 133 1.6 11.3 0.00 0.00 0.00 66 1013.2
20260507143704 14 134 1.6 11.3 0.00 0.00 0.00 66 1013.1
20260507143209 14 137 0.0 11.3 0.00 0.00 0.00 65 1013.1
20260507142704 14 104 1.6 8.0 0.00 0.00 0.00 63 1013.2
20260507142204 14 89 0.0 6.4 0.00 0.00 0.00 63 1013.3
20260507141205 14 93 1.6 8.0 0.00 0.00 0.00 63 1013.3
20260507140705 14 94 1.6 8.0 0.00 0.00 0.00 63 1013.4
20260507134204 14 92 3.2 8.0 0.00 0.00 0.00 63 1013.5
20260507133704 14 90 1.6 8.0 0.00 0.00 0.00 65 1013.5
20260507133205 13 79 0.0 8.0 0.00 0.00 0.00 67 1013.5
20260507132705 13 79 0.0 8.0 0.00 0.00 0.00 67 1013.5
20260507132205 13 79 3.2 8.0 0.00 0.00 0.00 64 1013.5
20260507131705 13 78 1.6 4.8 0.00 0.00 0.00 67 1013.6
20260507131204 13 103 0.0 4.8 0.00 0.00 0.00 67 1013.6
20260507130704 13 103 0.0 4.8 0.00 0.00 0.00 67 1013.6
20260507130205 13 103 0.0 3.2 0.00 0.00 0.00 67 1013.6
20260507125704 13 103 0.0 4.8 0.00 0.00 0.00 67 1013.6
20260507125204 13 103 0.0 6.4 0.00 0.00 0.00 66 1013.6
20260507124204 13 100 0.0 6.4 0.00 0.00 0.00 66 1013.7
20260507123708 13 97 0.0 3.2 0.00 0.00 0.00 66 1013.7
20260507123204 14 97 0.0 6.4 0.00 0.00 0.00 66 1013.6
20260507122706 14 97 0.0 6.4 0.00 0.00 0.00 65 1013.7
20260507122204 14 97 1.6 6.4 0.00 0.00 0.00 64 1013.7
20260507121704 14 97 3.2 3.2 0.00 0.00 0.00 64 1013.7
20260507121204 14 87 0.0 4.8 0.00 0.00 0.00 63 1013.6
20260507120704 14 87 1.6 6.4 0.00 0.00 0.00 62 1013.7
20260507115704 14 87 1.6 9.7 0.00 0.00 0.00 63 1013.7
20260507115205 14 85 1.6 9.7 0.00 0.00 0.00 63 1013.7
20260507114704 15 103 1.6 8.0 0.00 0.00 0.00 62 1013.7
20260507114204 15 103 3.2 6.4 0.00 0.00 0.00 60 1013.8
20260507113704 15 104 1.6 6.4 0.00 0.00 0.00 59 1013.7
20260507113205 16 104 3.2 6.4 0.00 0.00 0.00 59 1013.6
20260507112704 16 118 0.0 9.7 0.00 0.00 0.00 60 1013.7
20260507111703 16 120 1.6 9.7 0.00 0.00 0.00 62 1013.8
20260507111205 15 118 1.6 9.7 0.00 0.00 0.00 65 1013.7
20260507110705 15 118 1.6 9.7 0.00 0.00 0.00 66 1013.8
20260507110204 15 118 1.6 9.7 0.00 0.00 0.00 67 1013.8
20260507105704 14 120 3.2 8.0 0.00 0.00 0.00 70 1013.8
20260507105205 13 87 1.6 8.0 0.00 0.00 0.00 69 1013.8
20260507104709 13 102 1.6 8.0 0.00 0.00 0.00 69 1014.0
20260507104204 13 103 1.6 6.4 0.00 0.00 0.00 69 1013.9
20260507103705 13 103 1.6 6.4 0.00 0.00 0.00 69 1014.0
20260507102205 13 110 1.6 6.4 0.00 0.00 0.00 67 1013.9
20260507101704 13 110 1.6 4.8 0.00 0.00 0.00 69 1013.9
20260507101205 13 110 0.0 8.0 0.00 0.00 0.00 68 1014.0
20260507100204 13 110 0.0 8.0 0.00 0.00 0.00 68 1013.9
20260507095705 13 111 3.2 4.8 0.00 0.00 0.00 66 1014.1
20260507095205 13 114 0.0 3.2 0.00 0.00 0.00 69 1013.9
20260507094704 13 114 1.6 4.8 0.00 0.00 0.00 68 1014.0
20260507094205 13 113 0.0 4.8 0.00 0.00 0.00 67 1013.9
20260507093705 13 113 0.0 4.8 0.00 0.00 0.00 68 1013.9
20260507093204 13 113 1.6 3.2 0.00 0.00 0.00 68 1013.9
20260507092205 13 114 0.0 6.4 0.00 0.00 0.00 70 1013.9
20260507091211 13 113 1.6 6.4 0.00 0.00 0.00 70 1013.7
20260507090705 13 113 1.6 3.2 0.00 0.00 0.00 72 1013.9
20260507085705 13 113 0.0 8.0 0.00 0.00 0.00 73 1013.8
20260507085205 13 113 0.0 8.0 0.00 0.00 0.00 71 1013.9
20260507084705 13 113 1.6 8.0 0.00 0.00 0.00 69 1013.9
20260507083704 14 124 1.6 8.0 0.00 0.00 0.00 71 1013.8
20260507083204 14 124 0.0 8.0 0.00 0.00 0.00 74 1013.8
20260507082704 13 124 1.6 8.0 0.00 0.00 0.00 73 1013.8
20260507082229 13 137 3.2 4.8 0.00 0.00 0.00 76 1013.9
20260507081704 13 144 1.6 3.2 0.00 0.00 0.00 77 1013.8
20260507081204 12 145 1.6 4.8 0.00 0.00 0.00 80 1013.9
20260507080703 12 145 0.0 6.4 0.00 0.00 0.00 81 1013.8
20260507080204 12 145 0.0 6.4 0.00 0.00 0.00 81 1013.8
20260507075704 12 145 3.2 6.4 0.00 0.00 0.00 80 1013.8
20260507074704 11 199 1.6 6.4 0.00 0.00 0.00 83 1013.8
20260507073708 11 268 0.0 3.2 0.00 0.00 0.00 83 1013.7
20260507073204 10 276 0.0 1.6 0.00 0.00 0.00 83 1013.8
20260507072705 10 276 0.0 1.6 0.00 0.00 0.00 83 1013.7
20260507072204 10 276 0.0 1.6 0.00 0.00 0.00 83 1013.7
20260507071704 9 276 0.0 1.6 0.00 0.00 0.00 84 1013.7
20260507071203 9 276 0.0 1.6 0.00 0.00 0.00 84 1013.7
20260507070704 9 276 0.0 1.6 0.00 0.00 0.00 84 1013.7
20260507070203 9 276 0.0 1.6 0.00 0.00 0.00 84 1013.7
20260507065704 9 276 0.0 1.6 0.00 0.00 0.00 84 1013.7
20260507065204 9 276 0.0 0.0 0.00 0.00 0.00 84 1013.7
20260507064704 9 276 0.0 0.0 0.00 0.00 0.00 84 1013.7
20260507064204 9 276 0.0 0.0 0.00 0.00 0.00 84 1013.6
20260507063707 9 276 0.0 0.0 0.00 0.00 0.00 83 1013.6
20260507063204 9 276 0.0 0.0 0.00 0.00 0.00 83 1013.6
20260507062703 9 276 0.0 0.0 0.00 0.00 0.00 83 1013.6
20260507062205 9 276 0.0 0.0 0.00 0.00 0.00 83 1013.5
20260507061705 9 276 0.0 0.0 0.00 0.00 0.00 83 1013.4
20260507060704 9 276 0.0 0.0 0.00 0.00 0.00 83 1013.4
20260507060205 9 276 0.0 0.0 0.00 0.00 0.00 83 1013.4
20260507055704 8 276 0.0 0.0 0.00 0.00 0.00 83 1013.4
20260507055205 8 276 0.0 0.0 0.00 0.00 0.00 83 1013.3
20260507054705 8 276 0.0 0.0 0.00 0.00 0.00 83 1013.3
20260507054205 8 276 0.0 0.0 0.00 0.00 0.00 83 1013.2
20260507053705 8 276 0.0 0.0 0.00 0.00 0.00 83 1013.1
20260507053204 8 276 0.0 0.0 0.00 0.00 0.00 83 1013.2
20260507052705 8 276 0.0 0.0 0.00 0.00 0.00 83 1013.2
20260507052208 8 276 0.0 0.0 0.00 0.00 0.00 83 1013.1
20260507051707 8 276 0.0 0.0 0.00 0.00 0.00 83 1013.1
20260507045705 8 276 0.0 0.0 0.00 0.00 0.00 84 1013.2
20260507045205 8 276 0.0 0.0 0.00 0.00 0.00 84 1013.1
20260507044705 8 276 0.0 0.0 0.00 0.00 0.00 84 1013.0
20260507044203 8 276 0.0 0.0 0.00 0.00 0.00 84 1013.0
20260507043704 8 276 0.0 0.0 0.00 0.00 0.00 84 1013.0
20260507043205 8 276 0.0 0.0 0.00 0.00 0.00 84 1013.0
20260507042708 8 276 0.0 0.0 0.00 0.00 0.00 84 1013.0
20260507042204 8 276 0.0 0.0 0.00 0.00 0.00 84 1012.9
20260507041705 8 276 0.0 0.0 0.00 0.00 0.00 84 1012.9
20260507041204 8 276 0.0 0.0 0.00 0.00 0.00 84 1012.9
20260507040704 8 276 0.0 0.0 0.00 0.00 0.00 84 1012.8
20260507040205 8 276 0.0 0.0 0.00 0.00 0.00 84 1012.9
20260507035704 8 276 0.0 0.0 0.00 0.00 0.00 84 1012.9
20260507034705 8 276 0.0 0.0 0.00 0.00 0.00 84 1012.9
20260507034204 8 276 0.0 0.0 0.00 0.00 0.00 84 1012.9
20260507033704 8 276 0.0 0.0 0.00 0.00 0.00 84 1012.9
20260507033210 9 276 0.0 0.0 0.00 0.00 0.00 84 1012.8
20260507032704 9 276 0.0 0.0 0.00 0.00 0.00 84 1012.8
20260507032206 9 276 0.0 0.0 0.00 0.00 0.00 84 1012.7
20260507031705 9 276 0.0 0.0 0.00 0.00 0.00 84 1012.8
20260507031204 9 276 0.0 0.0 0.00 0.00 0.00 84 1012.7
20260507030704 9 276 0.0 0.0 0.00 0.00 0.00 84 1012.8
20260507030204 9 276 0.0 0.0 0.00 0.00 0.00 84 1012.8
20260507025709 9 276 0.0 0.0 0.00 0.00 0.00 84 1012.8
20260507025204 9 276 0.0 0.0 0.00 0.00 0.00 84 1012.8
20260507024704 9 276 0.0 0.0 0.00 0.00 0.00 84 1012.8
20260507024204 9 276 0.0 0.0 0.00 0.00 0.00 84 1012.8
20260507023704 8 276 0.0 0.0 0.00 0.00 0.00 84 1012.7
20260507022704 8 276 0.0 0.0 0.00 0.00 0.00 84 1012.6
20260507022204 8 276 0.0 0.0 0.00 0.00 0.00 84 1012.7
20260507021705 8 276 0.0 0.0 0.00 0.00 0.00 84 1012.5
20260507021204 8 276 0.0 0.0 0.00 0.00 0.00 84 1012.6
20260507020704 8 276 0.0 0.0 0.00 0.00 0.00 84 1012.5
20260507015704 9 276 0.0 0.0 0.00 0.00 0.00 84 1012.5
20260507015204 9 276 0.0 0.0 0.00 0.00 0.00 84 1012.5
20260507014704 9 276 0.0 0.0 0.00 0.00 0.00 84 1012.4
20260507014207 9 276 0.0 0.0 0.00 0.00 0.00 84 1012.5
20260507013704 9 276 0.0 0.0 0.00 0.00 0.00 84 1012.5
20260507013204 9 276 0.0 0.0 0.00 0.00 0.00 84 1012.5
20260507011704 9 276 0.0 0.0 0.00 0.00 0.00 84 1012.5
20260507010705 9 276 0.0 0.0 0.00 0.00 0.00 84 1012.5
20260507010204 9 276 0.0 0.0 0.00 0.00 0.00 84 1012.5
20260507005704 9 276 0.0 0.0 0.00 0.00 0.00 84 1012.4
20260507005206 9 276 0.0 0.0 0.00 0.00 0.00 84 1012.4
20260507004705 9 276 0.0 0.0 0.00 0.00 0.00 83 1012.6
20260507004210 9 276 0.0 0.0 0.00 0.00 0.00 83 1012.5
20260507003204 9 276 0.0 0.0 0.00 0.00 0.00 83 1012.5
20260507002704 9 276 0.0 0.0 0.00 0.00 0.00 83 1012.5
20260507002204 9 276 0.0 0.0 0.00 0.00 0.00 83 1012.5
20260507001705 9 276 0.0 0.0 0.00 0.00 0.00 83 1012.6
20260507001205 9 276 0.0 0.0 0.00 0.00 0.00 83 1012.4
20260507000704 9 276 0.0 0.0 0.00 0.00 0.00 83 1012.6
20260507000205 9 276 0.0 0.0 0.00 0.00 0.00 83 1012.5
20260506235705 9 276 0.0 0.0 0.00 0.00 0.00 83 1012.5
20260506235205 9 276 0.0 0.0 0.00 0.00 0.00 83 1012.5
20260506234705 9 276 0.0 0.0 0.00 0.00 0.00 83 1012.5
20260506234204 9 276 0.0 0.0 0.00 0.00 0.00 83 1012.5
20260506233704 9 276 0.0 0.0 0.00 0.00 0.00 83 1012.4
20260506233204 9 276 0.0 0.0 0.00 0.00 0.00 82 1012.4
20260506232709 9 276 0.0 1.6 0.00 0.00 0.00 83 1012.5
20260506232207 10 276 0.0 1.6 0.00 0.00 0.00 82 1012.5
20260506231706 10 276 0.0 3.2 0.00 0.00 0.00 82 1012.3
20260506231205 10 276 0.0 3.2 0.00 0.00 0.00 82 1012.4
20260506230705 10 276 0.0 3.2 0.00 0.00 0.00 82 1012.3
20260506230205 10 276 0.0 1.6 0.00 0.00 0.00 82 1012.5
20260506225704 10 276 0.0 3.2 0.00 0.00 0.00 82 1012.3